Fort Dodge, IA

11:24 AM CDT on September 25, 2016 (GMT -0500)
Fort Dodge Regional

Weather History for KFOD - January, 2013

Change the Weather History Date:

Friday, January 18, 2013

  Actual Average Record
Temperature  
Mean Temperature 39 °F -  
Max Temperature 50 °F 25 °F 54 °F (1951)
Min Temperature 28 °F 7 °F -21 °F (1970)
Degree Days  
Heating Degree Days 26    
Moisture  
Dew Point 28 °F    
Average Humidity 73    
Maximum Humidity 86    
Minimum Humidity 54    
Precipitation  
Precipitation 0.00 in - - ()
Sea Level Pressure  
Sea Level Pressure 29.97 in    
Wind  
Wind Speed 11 mph (SSW)    
Max Wind Speed 22 mph    
Max Gust Speed 33 mph    
Visibility 10 miles    
Events      
Averages and records for this station are not official NWS values.
T = Trace of Precipitation, MM = Missing Value Source: NWS Daily Summary

Daily Weather History Graph

Daily Weather History Graph

Search for Another Location

Airport or City:

Trip Planner

Search our weather history database for the weather conditions in past years. The results will help you decide how hot, cold, wet, or windy it might be!

Date:

Astronomy

Jan. 18, 2013 Rise Set
Actual Time 7:42 AM CST 5:12 PM CST
Civil Twilight 7:11 AM CST 5:43 PM CST
Nautical Twilight 6:36 AM CST 6:18 PM CST
Astronomical Twilight 6:03 AM CST 6:52 PM CST
Moon 11:10 AM CST (1/18) 12:14 AM CST (1/18)
Length of Visible Light 10h 32m
Length of Day
9h 30m
Waxing Crescent, 47% of the Moon is Illuminated
Jan 18
Waxing Crescent
Jan 18
First Quarter
Jan 26
Full
Feb 3
Last Quarter
Feb 10
New

Hourly Weather History & Observations

Time (CST) Temp. Windchill Dew Point Humidity Pressure Visibility Wind Dir Wind Speed Gust Speed Precip Events Conditions
12:15 AM 28.4 °F 21.2 °F 23.0 °F 80% 30.25 in 10.0 mi SSE 6.9 mph - N/A   Scattered Clouds
12:35 AM 28.4 °F 24.6 °F 23.0 °F 80% 30.24 in 10.0 mi SSE 3.5 mph - N/A   Mostly Cloudy
12:55 AM 28.4 °F 22.2 °F 24.8 °F 86% 30.24 in 10.0 mi South 5.8 mph - N/A   Overcast
1:15 AM 28.4 °F 21.2 °F 24.8 °F 86% 30.23 in 10.0 mi South 6.9 mph - N/A   Overcast
1:35 AM 28.4 °F 19.1 °F 24.8 °F 86% 30.23 in 10.0 mi South 10.4 mph - N/A   Mostly Cloudy
1:55 AM 28.4 °F 19.7 °F 24.8 °F 86% 30.22 in 10.0 mi South 9.2 mph - N/A   Clear
2:15 AM 28.4 °F 17.5 °F 24.8 °F 86% 30.20 in 10.0 mi South 13.8 mph 18.4 mph N/A   Clear
2:35 AM 28.4 °F 18.0 °F 24.8 °F 86% 30.19 in 10.0 mi South 12.7 mph - N/A   Clear
2:55 AM 28.4 °F 18.0 °F 24.8 °F 86% 30.19 in 10.0 mi South 12.7 mph - N/A   Clear
3:15 AM 28.4 °F 18.0 °F 24.8 °F 86% 30.17 in 10.0 mi South 12.7 mph 17.3 mph N/A   Clear
3:35 AM 30.2 °F 20.2 °F 24.8 °F 80% 30.15 in 10.0 mi South 12.7 mph - N/A   Clear
3:55 AM 30.2 °F 18.9 °F 24.8 °F 80% 30.13 in 10.0 mi South 16.1 mph 21.9 mph N/A   Clear
4:15 AM 30.2 °F 19.3 °F 24.8 °F 80% 30.12 in 10.0 mi South 15.0 mph - N/A   Clear
4:35 AM 30.2 °F 19.3 °F 24.8 °F 80% 30.11 in 10.0 mi South 15.0 mph 20.7 mph N/A   Clear
4:55 AM 30.2 °F 19.3 °F 24.8 °F 80% 30.09 in 10.0 mi South 15.0 mph 23.0 mph N/A   Clear
5:15 AM 30.2 °F 18.9 °F 24.8 °F 80% 30.08 in 10.0 mi SSW 16.1 mph - N/A   Clear
5:35 AM 30.2 °F 20.2 °F 24.8 °F 80% 30.07 in 10.0 mi South 12.7 mph - N/A   Clear
5:55 AM 30.2 °F 19.3 °F 24.8 °F 80% 30.05 in 10.0 mi SSW 15.0 mph - N/A   Clear
6:15 AM 30.2 °F 19.3 °F 24.8 °F 80% 30.04 in 10.0 mi SSW 15.0 mph 20.7 mph N/A   Clear
6:35 AM 30.2 °F 18.9 °F 24.8 °F 80% 30.03 in 10.0 mi SSW 16.1 mph - N/A   Clear
6:55 AM 30.2 °F 18.5 °F 24.8 °F 80% 30.03 in 10.0 mi SSW 17.3 mph 23.0 mph N/A   Clear
7:15 AM 30.2 °F 18.9 °F 24.8 °F 80% 30.01 in 10.0 mi SSW 16.1 mph - N/A   Clear
7:35 AM 30.2 °F 19.8 °F 26.6 °F 86% 30.01 in 10.0 mi SSW 13.8 mph - N/A   Clear
7:55 AM 30.2 °F 19.3 °F 26.6 °F 86% 30.00 in 10.0 mi South 15.0 mph - N/A   Clear
8:15 AM 32.0 °F 20.8 °F 26.6 °F 80% 29.99 in 10.0 mi South 17.3 mph - N/A   Clear
8:35 AM 32.0 °F 21.2 °F 26.6 °F 80% 29.98 in 10.0 mi SSW 16.1 mph 21.9 mph N/A   Clear
8:55 AM 33.8 °F 23.5 °F 28.4 °F 81% 29.97 in 10.0 mi SSW 16.1 mph - N/A   Clear
9:15 AM 35.6 °F 25.2 °F 28.4 °F 75% 29.97 in 10.0 mi SSW 18.4 mph 21.9 mph N/A   Clear
9:55 AM 39.2 °F 30.5 °F 28.4 °F 65% 29.97 in 10.0 mi SSW 16.1 mph 24.2 mph N/A   Clear
10:15 AM 39.2 °F 31.6 °F 30.2 °F 70% 29.96 in 10.0 mi SW 12.7 mph 24.2 mph N/A   Clear
10:35 AM 42.8 °F 34.3 °F 30.2 °F 61% 29.96 in 10.0 mi SW 19.6 mph - N/A   Clear
10:55 AM 42.8 °F 33.8 °F 30.2 °F 61% 29.94 in 10.0 mi SW 21.9 mph 33.4 mph N/A   Clear
11:15 AM 42.8 °F 34.0 °F 30.2 °F 61% 29.92 in 10.0 mi SW 20.7 mph 33.4 mph N/A   Clear
11:35 AM 44.6 °F 36.1 °F 30.2 °F 57% 29.91 in 10.0 mi SW 21.9 mph 29.9 mph N/A   Clear
11:55 AM 44.6 °F 36.9 °F 30.2 °F 57% 29.90 in 10.0 mi WSW 18.4 mph 29.9 mph N/A   Clear
12:15 PM 44.6 °F 36.4 °F 32.0 °F 61% 29.89 in 10.0 mi WSW 20.7 mph 29.9 mph N/A   Clear
12:35 PM 44.6 °F 37.4 °F 32.0 °F 61% 29.87 in 10.0 mi SW 16.1 mph 29.9 mph N/A   Clear
12:55 PM 46.4 °F 38.7 °F 32.0 °F 57% 29.86 in 10.0 mi SW 20.7 mph 26.5 mph N/A   Clear
1:15 PM 46.4 °F 39.8 °F 33.8 °F 62% 29.85 in 10.0 mi WSW 16.1 mph 25.3 mph N/A   Clear
1:35 PM 48.2 °F - 33.8 °F 58% 29.86 in 10.0 mi WSW 18.4 mph 25.3 mph N/A   Clear
1:55 PM 48.2 °F - 33.8 °F 58% 29.86 in 10.0 mi WSW 18.4 mph 24.2 mph N/A   Clear
2:15 PM 50.0 °F - 33.8 °F 54% 29.85 in 10.0 mi WSW 15.0 mph 21.9 mph N/A   Clear
2:35 PM 48.2 °F - 33.8 °F 58% 29.85 in 10.0 mi SW 20.7 mph 26.5 mph N/A   Clear
2:55 PM 48.2 °F - 32.0 °F 54% 29.85 in 10.0 mi WSW 16.1 mph 24.2 mph N/A   Clear
3:15 PM 48.2 °F - 33.8 °F 58% 29.84 in 10.0 mi WSW 13.8 mph - N/A   Clear
3:35 PM 48.2 °F - 32.0 °F 54% 29.84 in 10.0 mi WSW 13.8 mph 23.0 mph N/A   Clear
3:55 PM 46.4 °F 40.4 °F 32.0 °F 57% 29.85 in 10.0 mi WSW 13.8 mph 21.9 mph N/A   Clear
4:15 PM 46.4 °F 40.7 °F 32.0 °F 57% 29.85 in 10.0 mi WSW 12.7 mph 19.6 mph N/A   Clear
4:35 PM 46.4 °F 41.9 °F 33.8 °F 62% 29.86 in 10.0 mi WSW 9.2 mph - N/A   Clear
4:55 PM 44.6 °F 41.4 °F 32.0 °F 61% 29.86 in 10.0 mi SW 5.8 mph - N/A   Clear
5:15 PM 41.0 °F 35.2 °F 30.2 °F 65% 29.86 in 10.0 mi WSW 9.2 mph - N/A   Clear
5:35 PM 39.2 °F 33.6 °F 30.2 °F 70% 29.86 in 10.0 mi WSW 8.1 mph - N/A   Clear
5:55 PM 39.2 °F 33.6 °F 30.2 °F 70% 29.87 in 10.0 mi WSW 8.1 mph - N/A   Clear
6:15 PM 39.2 °F 32.5 °F 30.2 °F 70% 29.87 in 10.0 mi SW 10.4 mph - N/A   Clear
6:35 PM 39.2 °F 33.0 °F 30.2 °F 70% 29.87 in 10.0 mi SW 9.2 mph - N/A   Clear
6:55 PM 37.4 °F 32.8 °F 30.2 °F 75% 29.88 in 10.0 mi SW 5.8 mph - N/A   Clear
7:15 PM 37.4 °F 32.1 °F 30.2 °F 75% 29.88 in 10.0 mi SW 6.9 mph - N/A   Clear
7:35 PM 35.6 °F 31.7 °F 28.4 °F 75% 29.88 in 10.0 mi WSW 4.6 mph - N/A   Clear
7:55 PM 33.8 °F 30.8 °F 28.4 °F 81% 29.88 in 10.0 mi SW 3.5 mph - N/A   Clear
8:35 PM 35.6 °F 30.7 °F 28.4 °F 75% 29.88 in 10.0 mi SW 5.8 mph - N/A   Clear
9:35 PM 33.8 °F 30.8 °F 28.4 °F 81% 29.87 in 10.0 mi SW 3.5 mph - N/A   Clear
9:55 PM 33.8 °F 30.8 °F 28.4 °F 81% 29.87 in 10.0 mi SSW 3.5 mph - N/A   Clear
10:15 PM 33.8 °F 29.6 °F 28.4 °F 81% 29.87 in 10.0 mi SSW 4.6 mph - N/A   Clear
10:35 PM 33.8 °F - 28.4 °F 81% 29.86 in 10.0 mi Calm Calm - N/A   Clear
10:55 PM 33.8 °F 29.6 °F 28.4 °F 81% 29.86 in 10.0 mi SSW 4.6 mph - N/A   Clear
11:15 PM 33.8 °F - 28.4 °F 81% 29.84 in 10.0 mi Calm Calm - N/A   Clear
11:35 PM 33.8 °F 29.6 °F 28.4 °F 81% 29.83 in 10.0 mi SW 4.6 mph - N/A   Clear
11:55 PM 32.0 °F 28.7 °F 26.6 °F 80% 29.83 in 10.0 mi SW 3.5 mph - N/A   Clear